Shepherd Bay, Nunavut

7:51 AM CDT on October 22, 2017 (GMT -0500)
Shepherd Bay

Weather History for CYUS - April, 2013

Change the Weather History Date:

Thursday, April 25, 2013

  Actual Average Record
Temperature  
Mean Temperature -14 °F -  
Max Temperature -5 °F 18 °F - ()
Min Temperature -22 °F 2 °F - ()
Degree Days  
Heating Degree Days 78    
Moisture  
Dew Point -    
Average Humidity    
Maximum Humidity    
Minimum Humidity    
Precipitation  
Precipitation 0.00 in 0.01 in - ()
Sea Level Pressure  
Sea Level Pressure 29.72 in    
Wind  
Wind Speed 9 mph ()    
Max Wind Speed 12 mph    
Max Gust Speed -    
Visibility 9.0 miles    
Events      
T = Trace of Precipitation, MM = Missing Value Source: Averaged Metar Reports

Daily Weather History Graph

Daily Weather History Graph

Search for Another Location

Airport or City:

Trip Planner

Search our weather history database for the weather conditions in past years. The results will help you decide how hot, cold, wet, or windy it might be!

Date:

Astronomy

Apr. 25, 2013 Rise Set
Actual Time 4:29 AM CDT 9:57 PM CDT
Civil Twilight 2:51 AM CDT 11:39 PM CDT
Nautical Twilight Sun does not rise Sun does not rise
Astronomical Twilight Sun does not rise Sun does not rise
Moon 10:34 PM CDT (4/25) 4:20 AM CDT (4/25)
Length of Visible Light 20h 47m
Length of Day
17h 28m
Full, 100% of the Moon is Illuminated
Apr 25
Full
Apr 25
Full
May 2
Last Quarter
May 9
New
May 17
First Quarter

Hourly Weather History & Observations

Time (CDT) Temp. Windchill Dew Point Humidity Pressure Visibility Wind Dir Wind Speed Gust Speed Precip Events Conditions
12:00 AM -20.2 °F -41.3 °F - N/A% 29.73 in 9.0 mi East 10.4 mph - N/A   Unknown
12:12 AM -20.2 °F -41.3 °F - N/A% 29.70 in 9.0 mi East 10.4 mph - N/A   Unknown
1:00 AM -21 °F - - % 29.71 in 9 mi East 10.4 mph - -  
1:00 AM -22.0 °F -43.6 °F - N/A% 29.71 in 9.0 mi East 10.4 mph - N/A   Unknown
2:00 AM -22.0 °F -44.7 °F - N/A% 29.71 in 9.0 mi East 11.5 mph - N/A   Unknown
3:00 AM -22.0 °F -44.7 °F - N/A% 29.70 in 9.0 mi East 11.5 mph - N/A   Unknown
4:00 AM -19 °F - - % 29.70 in 9 mi East 10.4 mph - -  
4:00 AM -18.4 °F -37.9 °F - N/A% 29.70 in 9.0 mi East 9.2 mph - N/A   Unknown
4:05 AM -18.4 °F -39.1 °F - N/A% 29.68 in 9.0 mi East 10.4 mph - N/A   Unknown
4:37 AM -20.2 °F -40.1 °F - N/A% 29.68 in 9.0 mi ESE 9.2 mph - N/A   Unknown
6:00 AM -20.2 °F -41.3 °F - N/A% 29.71 in 9.0 mi East 10.4 mph - N/A   Unknown
7:00 AM -20 °F - - % 29.71 in 9 mi ESE 10.4 mph - -  
7:00 AM -20.2 °F -41.3 °F - N/A% 29.71 in 9.0 mi ESE 10.4 mph - N/A   Unknown
8:00 AM -20.2 °F -42.4 °F - N/A% 29.71 in 9.0 mi ESE 11.5 mph - N/A   Unknown
9:00 AM -16.6 °F -37.9 °F - N/A% 29.71 in 9.0 mi East 11.5 mph - N/A   Unknown
10:00 AM -14 °F - - % 29.71 in 9 mi ESE 9.2 mph - -  
10:00 AM -13.0 °F -31.3 °F - N/A% 29.71 in 9.0 mi ESE 9.2 mph - N/A   Unknown
11:00 AM -11.2 °F -29.0 °F - N/A% 29.71 in 9.0 mi East 9.2 mph - N/A   Unknown
12:00 PM -9.4 °F -26.8 °F - N/A% 29.71 in 9.0 mi ESE 9.2 mph - N/A   Unknown
1:00 PM -7 °F - - % 29.71 in 9 mi East 10.4 mph - -  
2:00 PM -5.8 °F -24.4 °F - N/A% 29.72 in 9.0 mi East 11.5 mph - N/A   Unknown
3:00 PM -5.8 °F -22.4 °F - N/A% 29.73 in 9.0 mi East 9.2 mph - N/A   Unknown
4:00 PM -5 °F - - % 29.73 in 9 mi East 8.1 mph - -  
4:00 PM -5.8 °F -21.2 °F - N/A% 29.73 in 9.0 mi East 8.1 mph - N/A   Unknown
5:00 PM -5.8 °F -19.9 °F - N/A% 29.74 in 9.0 mi ESE 6.9 mph - N/A   Unknown
6:00 PM -5.8 °F -21.2 °F - N/A% 29.74 in 9.0 mi East 8.1 mph - N/A   Unknown
7:00 PM -9 °F - - % 29.75 in 9 mi ESE 9.2 mph - -  
7:00 PM -9.4 °F -26.8 °F - N/A% 29.75 in 9.0 mi ESE 9.2 mph - N/A   Unknown
8:00 PM -11.2 °F -30.1 °F - N/A% 29.75 in 9.0 mi ESE 10.4 mph - N/A   Unknown
9:00 PM -13.0 °F -32.4 °F - N/A% 29.76 in 9.0 mi East 10.4 mph - N/A   Unknown
10:00 PM -16 °F - - % 29.76 in 9 mi East 10.4 mph - -  
10:00 PM -16.6 °F -36.8 °F - N/A% 29.76 in 9.0 mi East 10.4 mph - N/A   Unknown
11:00 PM -16.6 °F -36.8 °F - N/A% 29.75 in 9.0 mi East 10.4 mph - N/A   Unknown